Weather History for Cairns Airport, Queensland

Change the Weather History Date:

Saturday, March 16, 2013

  Actual Average Record
Temperature  
Mean Temperature 78 °F -  
Max Temperature 89 °F 85 °F - ()
Min Temperature 66 °F 72 °F - ()
Cooling Degree Days 12    
Growing Degree Days 28 (Base 50)    
Moisture  
Dew Point 67 °F    
Average Humidity 70    
Maximum Humidity 94    
Minimum Humidity 39    
Precipitation  
Precipitation 0.00 in 0.43 in - ()
Sea Level Pressure  
Sea Level Pressure 29.86 in    
Wind  
Wind Speed 6 mph ()    
Max Wind Speed 17 mph    
Max Gust Speed -    
Visibility 7.8 miles    
Events      
T = Trace of Precipitation, MM = Missing Value Source: Averaged Metar Reports

Daily Weather History Graph

Daily Weather History Graph

Search for Another Location

Airport:

Trip Planner

Search our weather history database for the weather conditions in past years. The results will help you decide how hot, cold, wet, or windy it might be!

Date:

Astronomy

Mar. 16, 2013 Rise Set
Actual Time 6:20 AM AEST 6:31 PM AEST
Civil Twilight 5:58 AM AEST 6:52 PM AEST
Nautical Twilight 5:33 AM AEST 7:17 PM AEST
Astronomical Twilight 5:08 AM AEST 7:43 PM AEST
Moon 9:51 AM AEST (3/16) 9:30 PM AEST (3/16)
Length of Visible Light 12h 54m
Length of Day
12h 10m
Waxing Crescent, 18% of the Moon is Illuminated
Mar 16
Waxing Crescent
Mar 20
First Quarter
Mar 27
Full
Apr 3
Last Quarter
Apr 10
New

Hourly Weather History & Observations

Time (AEST) Temp. Heat Index Dew Point Humidity Pressure Visibility Wind Dir Wind Speed Gust Speed Precip Events Conditions
12:00 AM 71 °F - 66 °F 80% 29.88 in - South 4.6 mph - -  
12:00 AM 71.6 °F - 66.2 °F 83% 29.89 in - South 4.6 mph - N/A   Clear
12:30 AM 71.6 °F - 66.2 °F 83% 29.86 in - South 3.5 mph - N/A   Clear
1:00 AM 69 °F - 66 °F 88% 29.88 in - West 4.6 mph - -  
1:00 AM 69.8 °F - 66.2 °F 88% 29.86 in - West 4.6 mph - N/A   Clear
1:30 AM 69.8 °F - 66.2 °F 88% 29.86 in - West 3.5 mph - N/A   Clear
2:00 AM 69.8 °F - 66.2 °F 88% 29.86 in 6.2 mi West 3.5 mph - N/A   Unknown
2:30 AM 68.0 °F - 66.2 °F 94% 29.86 in - West 5.8 mph - N/A   Clear
3:00 AM 68 °F - 65 °F 88% 29.86 in - Calm Calm - -  
3:00 AM 68.0 °F - 66.2 °F 94% 29.86 in - Calm Calm - N/A   Clear
3:30 AM 69.8 °F - 62.6 °F 78% 29.86 in - SSW 5.8 mph - N/A   Clear
4:00 AM 69 °F - 65 °F 81% 29.87 in - West 3.5 mph - -  
4:00 AM 69.8 °F - 64.4 °F 83% 29.86 in - West 3.5 mph - N/A   Clear
4:30 AM 68.0 °F - 64.4 °F 88% 29.86 in - Calm Calm - N/A   Clear
5:00 AM 68.0 °F - 64.4 °F 88% 29.86 in - SE 4.6 mph - N/A   Clear
5:30 AM 68.0 °F - 64.4 °F 88% 29.86 in - Calm Calm - N/A   Clear
6:00 AM 67 °F - 64 °F 86% 29.86 in 19 mi SW 1.2 mph - -   Partly Cloudy
6:00 AM 68.0 °F - 64.4 °F 88% 29.86 in - SW 1.2 mph - N/A   Clear
6:30 AM 68.0 °F - 64.4 °F 88% 29.86 in 6.2 mi SE 2.3 mph - N/A   Mostly Cloudy
7:00 AM 69 °F - 65 °F 84% 29.88 in - Calm Calm - -  
7:00 AM 68.0 °F - 66.2 °F 94% 29.86 in 6.2 mi Calm Calm - N/A   Mostly Cloudy
7:30 AM 71.6 °F - 66.2 °F 83% 29.86 in 6.2 mi SW 5.8 mph - N/A   Mostly Cloudy
8:00 AM 75.2 °F - 64.4 °F 69% 29.89 in 6.2 mi North 4.6 mph - N/A   Mostly Cloudy
8:30 AM 77.0 °F - 66.2 °F 69% 29.89 in - NW 4.6 mph - N/A   Clear
9:00 AM 80 °F - 67 °F 55% 29.91 in 19 mi SSE 5.8 mph - -   Partly Cloudy
9:00 AM 80.6 °F 82.7 °F 66.2 °F 61% 29.89 in 6.2 mi SSE 5.8 mph - N/A   Mostly Cloudy
9:30 AM 82.4 °F 85.4 °F 68.0 °F 62% 29.92 in 6.2 mi SE 10.4 mph - N/A   Mostly Cloudy
10:00 AM 84.2 °F 87.3 °F 68.0 °F 58% 29.89 in 6.2 mi SSE 9.2 mph - N/A   Mostly Cloudy
10:30 AM 84.2 °F 87.3 °F 68.0 °F 58% 29.89 in 6.2 mi South 10.4 mph - N/A   Mostly Cloudy
11:00 AM 86.0 °F 89.4 °F 68.0 °F 55% 29.89 in 6.2 mi SE 11.5 mph - N/A   Mostly Cloudy
11:30 AM 86.0 °F 89.4 °F 68.0 °F 55% 29.89 in 6.2 mi SE 9.2 mph - N/A   Mostly Cloudy
12:00 PM 88 °F - 69 °F 43% 29.88 in 19 mi SE 12.7 mph - -   Partly Cloudy
12:00 PM 87.8 °F 91.4 °F 68.0 °F 52% 29.86 in 6.2 mi SE 12.7 mph - N/A   Scattered Clouds
12:30 PM 87.8 °F 91.4 °F 68.0 °F 52% 29.86 in 6.2 mi ESE 15.0 mph - N/A   Mostly Cloudy
1:00 PM 88 °F - 66 °F 39% 29.86 in - ESE 12.7 mph - -  
1:00 PM 87.8 °F 90.4 °F 66.2 °F 49% 29.83 in 6.2 mi ESE 12.7 mph - N/A   Mostly Cloudy
1:30 PM 89.6 °F 92.2 °F 66.2 °F 46% 29.83 in 6.2 mi ESE 17.3 mph - N/A   Mostly Cloudy
2:00 PM 87.8 °F 91.4 °F 68.0 °F 52% 29.80 in 6.2 mi ESE 13.8 mph - N/A   Mostly Cloudy
2:30 PM 86.0 °F 88.2 °F 66.2 °F 51% 29.80 in 6.2 mi ESE 15.0 mph - N/A   Mostly Cloudy
3:00 PM 88 °F - 68 °F 41% 29.81 in 19 mi SE 17.3 mph - -   Partly Cloudy
3:00 PM 87.8 °F 91.4 °F 68.0 °F 52% 29.80 in 6.2 mi SE 17.3 mph - N/A   Mostly Cloudy
3:30 PM 86.0 °F 89.4 °F 68.0 °F 55% 29.80 in 6.2 mi SE 16.1 mph - N/A   Mostly Cloudy
4:00 PM 87 °F - 69 °F 47% 29.81 in - SE 16.1 mph - -  
4:00 PM 86.0 °F 90.4 °F 69.8 °F 58% 29.80 in 6.2 mi SE 16.1 mph - N/A   Mostly Cloudy
4:30 PM 86.0 °F 89.4 °F 68.0 °F 55% 29.80 in 6.2 mi SE 13.8 mph - N/A   Mostly Cloudy
5:00 PM 86.0 °F 88.2 °F 66.2 °F 51% 29.80 in 6.2 mi SE 11.5 mph - N/A   Mostly Cloudy
5:30 PM 84.2 °F 88.4 °F 69.8 °F 62% 29.80 in 6.2 mi SE 8.1 mph - N/A   Mostly Cloudy
6:00 PM 83 °F - 69 °F 54% 29.82 in 19 mi SE 9.2 mph - -   Partly Cloudy
6:00 PM 82.4 °F 86.3 °F 69.8 °F 66% 29.80 in 6.2 mi SE 9.2 mph - N/A   Mostly Cloudy
6:30 PM 80.6 °F 83.9 °F 69.8 °F 70% 29.83 in 6.2 mi SSE 8.1 mph - N/A   Mostly Cloudy
7:00 PM 79 °F - 71 °F 69% 29.84 in - South 4.6 mph - -  
7:00 PM 78.8 °F - 69.8 °F 74% 29.83 in 6.2 mi South 4.6 mph - N/A   Mostly Cloudy
7:30 PM 78.8 °F - 71.6 °F 78% 29.83 in 6.2 mi SSE 2.3 mph - N/A   Mostly Cloudy
8:00 PM 77.0 °F - 71.6 °F 83% 29.86 in 6.2 mi SSE 4.6 mph - N/A   Mostly Cloudy
8:30 PM 78.8 °F - 71.6 °F 78% 29.86 in 6.2 mi South 5.8 mph - N/A   Scattered Clouds
9:00 PM 78.8 °F - 71.6 °F 78% 29.89 in 6.2 mi South 6.9 mph - N/A   Scattered Clouds
9:30 PM 78.8 °F - 71.6 °F 78% 29.89 in 6.2 mi South 6.9 mph - N/A   Scattered Clouds
10:00 PM 78 °F - 70 °F 71% 29.90 in - South 5.8 mph - -  
10:00 PM 77.0 °F - 69.8 °F 78% 29.89 in 6.2 mi South 5.8 mph - N/A   Partly Cloudy
10:30 PM 77.0 °F - 69.8 °F 78% 29.89 in 6.2 mi South 8.1 mph - N/A   Partly Cloudy
11:00 PM 77.0 °F - 71.6 °F 83% 29.89 in 6.2 mi South 4.6 mph - N/A   Partly Cloudy
11:30 PM 77.0 °F - 69.8 °F 78% 29.89 in 6.2 mi South 4.6 mph - N/A   Partly Cloudy